QPF
0.00 0.00 0.00 0.00 0.00 0.00 0.00 0.00 0.00 0.00 0.00 0.00 0.00 0.00 0.00 0.00 0.00 0.00 0.00 0.00 0.00 0.00 0.00 0.01 0.01 0.01 0.02 0.01 0.01 0.00 0.00 0.00 0.00 0.00 0.00 0.00 0.00 0.01 0.04 0.04 0.03 0.04 0.05 0.06 0.03 0.01 0.00 0.00 0.00
0.00 0.00 0.00 0.00 0.00 0.00 0.00 0.00 0.00 0.00 0.00 0.00 0.00 0.00 0.00 0.00 0.00 0.00 0.00 0.00 0.00 0.00 0.00 0.00 0.01 0.01 0.01 0.01 0.00 0.00 0.00 0.00 0.00 0.00 0.00 0.00 0.00 0.04 0.12 0.03 0.02 0.01 0.01 0.01 0.00 0.00 0.00 0.00 0.00
0.00 0.00 0.00 0.00 0.00 0.00 0.00 0.00 0.00 0.00 0.00 0.00 0.00 0.00 0.00 0.00 0.00 0.00 0.00 0.00 0.00 0.00 0.00 0.00 0.01 0.00 0.00 0.00 0.00 0.00 0.00 0.00 0.00 0.01 0.02 0.03 0.04 0.13 0.12 0.03 0.01 0.01 0.00 0.00 0.00 0.01 0.01 0.00 0.03
0.00 0.00 0.00 0.00 0.00 0.00 0.00 0.00 0.00 0.00 0.00 0.00 0.00 0.00 0.00 0.00 0.00 0.00 0.00 0.00 0.00 0.00 0.00 0.01 0.01 0.00 0.00 0.00 0.00 0.00 0.00 0.00 0.00 0.02 0.05 0.05 0.07 0.04 0.00 0.00 0.00 0.00 0.00 0.00 0.00 0.04 0.07 0.04 0.02
0.00 0.00 0.00 0.00 0.00 0.00 0.00 0.00 0.00 0.00 0.00 0.00 0.00 0.00 0.00 0.00 0.00 0.00 0.00 0.00 0.00 0.00 0.00 0.01 0.00 0.00 0.00 0.00 0.00 0.00 0.00 0.00 0.00 0.00 0.02 0.05 0.02 0.00 0.00 0.00 0.00 0.00 0.00 0.00 0.01 0.03 0.07 0.09 0.03
0.00 0.00 0.00 0.00 0.00 0.00 0.00 0.00 0.00 0.00 0.00 0.00 0.00 0.00 0.00 0.00 0.00 0.00 0.00 0.00 0.00 0.00 0.02 0.01 0.00 0.00 0.00 0.00 0.00 0.00 0.00 0.00 0.01 0.02 0.01 0.01 0.00 0.00 0.00 0.00 0.00 0.00 0.00 0.00 0.03 0.03 0.05 0.02 0.00
0.00 0.00 0.00 0.00 0.00 0.00 0.00 0.00 0.00 0.00 0.00 0.00 0.00 0.00 0.00 0.00 0.00 0.00 0.00 0.00 0.00 0.01 0.02 0.01 0.00 0.00 0.00 0.00 0.00 0.00 0.00 0.00 0.02 0.01 0.00 0.00 0.00 0.00 0.01 0.02 0.01 0.00 0.00 0.01 0.01 0.03 0.01 0.01 0.00
0.00 0.00 0.00 0.00 0.00 0.00 0.00 0.00 0.00 0.00 0.00 0.00 0.00 0.00 0.00 0.00 0.00 0.00 0.00 0.00 0.00 0.02 0.01 0.01 0.01 0.00 0.00 0.00 0.00 0.00 0.00 0.00 0.01 0.00 0.00 0.00 0.00 0.00 0.02 0.01 0.00 0.00 0.00 0.00 0.01 0.03 0.04 0.04 0.02
0.01 0.00 0.00 0.00 0.00 0.00 0.00 0.00 0.00 0.00 0.00 0.00 0.00 0.00 0.00 0.00 0.00 0.00 0.00 0.01 0.02 0.02 0.02 0.01 0.00 0.00 0.00 0.00 0.01 0.00 0.00 0.00 0.00 0.00 0.00 0.00 0.00 0.00 0.00 0.00 0.00 0.00 0.00 0.00 0.00 0.01 0.02 0.04 0.01
0.01 0.00 0.00 0.00 0.00 0.00 0.00 0.00 0.00 0.00 0.00 0.00 0.00 0.00 0.00 0.00 0.00 0.00 0.00 0.00 0.01 0.01 0.02 0.01 0.01 0.00 0.00 0.01 0.00 0.00 0.00 0.00 0.00 0.00 0.00 0.00 0.00 0.00 0.00 0.00 0.00 0.00 0.00 0.00 0.00 0.00 0.00 0.00 0.00
0.00 0.00 0.00 0.00 0.00 0.00 0.00 0.00 0.00 0.00 0.00 0.00 0.00 0.00 0.00 0.00 0.00 0.00 0.00 0.00 0.00 0.00 0.02 0.01 0.01 0.01 0.00 0.00 0.00 0.00 0.00 0.00 0.00 0.00 0.00 0.00 0.00 0.00 0.00 0.00 0.00 0.00 0.00 0.00 0.00 0.00 0.00 0.00 0.00
0.01 0.00 0.00 0.00 0.00 0.00 0.00 0.00 0.00 0.00 0.00 0.00 0.00 0.00 0.00 0.00 0.00 0.00 0.00 0.00 0.00 0.01 0.01 0.01 0.00 0.00 0.00 0.00 0.00 0.00 0.00 0.00 0.00 0.00 0.00 0.00 0.00 0.00 0.00 0.00 0.00 0.00 0.00 0.00 0.00 0.00 0.00 0.00 0.00
0.01 0.00 0.00 0.00 0.00 0.00 0.00 0.00 0.00 0.00 0.00 0.00 0.00 0.00 0.00 0.00 0.00 0.00 0.00 0.00 0.00 0.01 0.01 0.02 0.01 0.03 0.00 0.00 0.00 0.00 0.00 0.00 0.00 0.00 0.01 0.00 0.00 0.00 0.00 0.00 0.00 0.00 0.00 0.00 0.00 0.00 0.00 0.00 0.00
0.00 0.00 0.01 0.00 0.00 0.00 0.00 0.00 0.00 0.00 0.00 0.00 0.00 0.00 0.00 0.00 0.00 0.01 0.00 0.00 0.01 0.02 0.02 0.02 0.01 0.03 0.00 0.00 0.00 0.00 0.00 0.01 0.00 0.00 0.03 0.00 0.00 0.00 0.00 0.00 0.00 0.00 0.00 0.00 0.00 0.00 0.00 0.00 0.00
0.00 0.01 0.01 0.01 0.01 0.00 0.00 0.00 0.00 0.00 0.00 0.00 0.00 0.00 0.00 0.00 0.01 0.00 0.00 0.00 0.00 0.01 0.03 0.02 0.01 0.03 0.00 0.02 0.00 0.00 0.00 0.00 0.00 0.00 0.00 0.00 0.00 0.00 0.00 0.00 0.00 0.00 0.00 0.00 0.00 0.00 0.00 0.00 0.00
0.01 0.01 0.00 0.00 0.00 0.01 0.02 0.00 0.00 0.00 0.00 0.00 0.00 0.00 0.00 0.00 0.00 0.02 0.03 0.00 0.00 0.01 0.03 0.08 0.07 0.01 0.00 0.00 0.02 0.04 0.01 0.00 0.00 0.00 0.00 0.00 0.00 0.00 0.00 0.00 0.00 0.00 0.00 0.00 0.00 0.00 0.00 0.00 0.00
0.01 0.01 0.00 0.00 0.00 0.03 0.02 0.00 0.00 0.00 0.00 0.00 0.00 0.00 0.00 0.01 0.04 0.02 0.02 0.00 0.01 0.01 0.03 0.10 0.15 0.06 0.01 0.00 0.01 0.01 0.02 0.01 0.00 0.00 0.00 0.00 0.00 0.00 0.00 0.00 0.00 0.00 0.00 0.00 0.00 0.00 0.00 0.00 0.00
0.00 0.00 0.00 0.00 0.00 0.01 0.01 0.00 0.00 0.00 0.00 0.00 0.00 0.00 0.00 0.00 0.01 0.01 0.00 0.00 0.00 0.01 0.02 0.06 0.14 0.12 0.06 0.04 0.03 0.02 0.01 0.01 0.00 0.00 0.00 0.00 0.00 0.00 0.00 0.00 0.00 0.00 0.00 0.00 0.00 0.00 0.00 0.00 0.00
0.00 0.00 0.00 0.00 0.00 0.00 0.00 0.00 0.00 0.00 0.00 0.00 0.00 0.00 0.00 0.00 0.00 0.01 0.00 0.00 0.00 0.00 0.01 0.03 0.07 0.10 0.11 0.07 0.04 0.02 0.01 0.01 0.00 0.00 0.00 0.00 0.00 0.00 0.00 0.00 0.00 0.00 0.00 0.00 0.00 0.00 0.00 0.00 0.00
0.00 0.00 0.00 0.00 0.00 0.00 0.00 0.00 0.01 0.00 0.00 0.00 0.00 0.00 0.00 0.00 0.00 0.01 0.01 0.00 0.00 0.00 0.01 0.02 0.05 0.10 0.14 0.10 0.09 0.03 0.01 0.02 0.01 0.00 0.00 0.00 0.00 0.00 0.00 0.00 0.00 0.00 0.00 0.00 0.00 0.00 0.00 0.00 0.00
0.00 0.00 0.00 0.00 0.00 0.00 0.00 0.01 0.01 0.00 0.00 0.00 0.00 0.00 0.00 0.00 0.00 0.00 0.00 0.00 0.00 0.00 0.01 0.01 0.03 0.05 0.07 0.08 0.06 0.05 0.02 0.04 0.03 0.01 0.01 0.00 0.00 0.00 0.00 0.00 0.00 0.00 0.00 0.00 0.00 0.00 0.00 0.00 0.00
0.00 0.00 0.00 0.00 0.01 0.00 0.00 0.00 0.00 0.00 0.00 0.00 0.00 0.00 0.00 0.00 0.00 0.00 0.00 0.00 0.00 0.00 0.00 0.02 0.02 0.04 0.05 0.04 0.05 0.05 0.06 0.04 0.03 0.03 0.02 0.00 0.00 0.00 0.00 0.00 0.00 0.00 0.00 0.00 0.00 0.00 0.00 0.00 0.00
0.00 0.00 0.00 0.00 0.00 0.01 0.00 0.00 0.00 0.00 0.00 0.00 0.00 0.00 0.00 0.00 0.00 0.00 0.00 0.00 0.00 0.00 0.00 0.00 0.01 0.03 0.06 0.07 0.06 0.10 0.10 0.08 0.05 0.03 0.02 0.01 0.00 0.00 0.00 0.00 0.00 0.00 0.00 0.00 0.00 0.00 0.00 0.00 0.00
0.00 0.00 0.00 0.00 0.00 0.00 0.00 0.00 0.00 0.00 0.00 0.00 0.00 0.00 0.00 0.01 0.00 0.00 0.00 0.00 0.00 0.00 0.00 0.00 0.00 0.01 0.01 0.04 0.04 0.05 0.06 0.05 0.03 0.01 0.01 0.00 0.00 0.00 0.00 0.00 0.00 0.00 0.00 0.00 0.00 0.00 0.00 0.00 0.00
0.00 0.00 0.01 0.01 0.00 0.00 0.00 0.01 0.01 0.00 0.00 0.00 0.00 0.00 0.00 0.00 0.00 0.00 0.00 0.00 0.01 0.00 0.00 0.00 0.00 0.01 0.01 0.01 0.02 0.02 0.02 0.02 0.01 0.01 0.00 0.00 0.00 0.00 0.00 0.00 0.00 0.00 0.00 0.00 0.00 0.00 0.00 0.00 0.00
0.00 0.00 0.01 0.00 0.00 0.00 0.01 0.02 0.00 0.00 0.00 0.00 0.00 0.00 0.00 0.00 0.00 0.01 0.00 0.01 0.01 0.00 0.00 0.00 0.00 0.01 0.01 0.01 0.00 0.00 0.01 0.01 0.00 0.00 0.00 0.00 0.00 0.00 0.00 0.00 0.00 0.00 0.00 0.00 0.00 0.00 0.00 0.00 0.00
0.00 0.00 0.00 0.00 0.00 0.00 0.01 0.00 0.00 0.00 0.00 0.00 0.00 0.00 0.00 0.00 0.00 0.00 0.00 0.00 0.00 0.00 0.00 0.00 0.00 0.00 0.00 0.00 0.00 0.00 0.00 0.00 0.00 0.00 0.00 0.00 0.00 0.00 0.00 0.00 0.00 0.00 0.00 0.00 0.00 0.00 0.00 0.00 0.00
0.00 0.00 0.00 0.00 0.00 0.00 0.00 0.00 0.00 0.00 0.00 0.00 0.00 0.00 0.00 0.00 0.00 0.00 0.00 0.00 0.00 0.00 0.00 0.00 0.00 0.00 0.00 0.00 0.00 0.00 0.00 0.00 0.00 0.00 0.00 0.00 0.00 0.00 0.00 0.00 0.00 0.00 0.00 0.00 0.00 0.00 0.00 0.00 0.00
0.00 0.00 0.00 0.00 0.00 0.00 0.00 0.00 0.00 0.00 0.00 0.00 0.00 0.00 0.00 0.00 0.00 0.00 0.00 0.00 0.00 0.00 0.00 0.00 0.00 0.00 0.00 0.00 0.00 0.00 0.00 0.00 0.00 0.00 0.00 0.00 0.00 0.00 0.00 0.00 0.00 0.00 0.00 0.00 0.00 0.00 0.00 0.00 0.00
0.00 0.00 0.00 0.00 0.00 0.00 0.00 0.00 0.00 0.00 0.00 0.00 0.00 0.00 0.00 0.00 0.00 0.00 0.00 0.00 0.00 0.00 0.00 0.00 0.00 0.00 0.00 0.00 0.00 0.00 0.00 0.00 0.00 0.00 0.00 0.00 0.00 0.00 0.00 0.00 0.00 0.00 0.00 0.00 0.00 0.00 0.00 0.00 0.00
MSLP
1012.63 1013.05 1013.51 1014.29 1015.99 1016.72 1015.76 1014.85 1013.94 1013.32 1012.68 1011.23 1010.77 1010.78 1010.62 1010.52 1011.04 1011.74 1010.56 1010.63 1010.91 1011.55 1011.99 1012.49 1013.08 1013.50 1013.94 1014.44 1014.81 1015.19 1015.35 1015.53 1015.74 1015.97 1016.15 1016.36 1016.57 1016.86 1016.98 1017.22 1017.43 1017.56 1017.65 1017.87 1018.17 1018.36 1018.62 1018.89 1019.02
1012.95 1013.41 1014.21 1015.51 1016.45 1016.80 1015.23 1014.06 1013.12 1012.03 1011.16 1010.55 1010.27 1010.37 1010.50 1010.38 1010.38 1010.76 1011.09 1010.89 1010.85 1011.31 1011.88 1012.44 1013.04 1013.64 1014.13 1014.52 1014.98 1015.29 1015.58 1015.84 1016.07 1016.20 1016.52 1016.73 1016.93 1017.19 1017.37 1017.54 1017.78 1017.93 1018.08 1018.41 1018.73 1018.94 1019.14 1019.26 1019.50
1012.83 1013.44 1014.80 1015.77 1016.16 1015.33 1014.40 1012.99 1012.13 1011.21 1010.76 1010.60 1010.17 1009.92 1010.15 1010.19 1010.28 1010.42 1010.23 1010.69 1010.93 1011.39 1011.88 1012.52 1013.06 1013.63 1014.23 1014.65 1015.21 1015.42 1015.73 1016.04 1016.36 1016.54 1016.85 1017.15 1017.41 1017.57 1017.93 1018.05 1018.29 1018.57 1018.78 1019.00 1019.17 1019.36 1019.59 1019.68 1019.93
1013.05 1014.17 1015.27 1015.35 1014.95 1014.25 1013.08 1012.13 1011.73 1011.49 1010.84 1010.61 1010.16 1010.37 1010.19 1009.89 1010.22 1010.09 1010.40 1010.77 1011.20 1011.44 1012.07 1012.60 1013.14 1013.69 1014.26 1014.75 1015.27 1015.58 1015.94 1016.28 1016.61 1017.00 1017.26 1017.61 1017.89 1018.22 1018.58 1018.87 1018.99 1019.18 1019.48 1019.60 1019.57 1019.98 1020.28 1020.38 1020.53
1013.20 1014.28 1015.02 1014.88 1014.13 1013.39 1012.48 1011.70 1011.43 1010.96 1010.60 1010.29 1010.14 1010.21 1010.25 1009.97 1009.95 1010.27 1010.55 1010.91 1011.22 1011.75 1012.21 1012.76 1013.15 1013.74 1014.47 1014.93 1015.34 1015.80 1016.16 1016.53 1016.89 1017.29 1017.64 1018.10 1018.38 1018.86 1019.19 1019.39 1019.45 1019.60 1019.89 1020.22 1020.04 1020.59 1021.05 1021.20 1021.28
1013.24 1013.93 1014.38 1013.55 1013.49 1012.88 1011.97 1011.39 1011.21 1010.81 1010.21 1009.96 1010.32 1010.29 1010.40 1010.27 1010.29 1010.69 1010.78 1011.30 1011.53 1011.89 1012.34 1012.86 1013.39 1013.92 1014.60 1015.13 1015.58 1016.00 1016.37 1016.78 1017.20 1017.53 1017.98 1018.43 1018.90 1019.27 1019.59 1019.79 1019.91 1020.05 1020.31 1020.47 1021.13 1020.84 1021.30 1021.71 1022.02
1012.42 1013.24 1012.40 1012.45 1012.30 1012.38 1011.10 1010.75 1010.93 1010.33 1010.24 1009.71 1009.57 1010.36 1010.66 1010.70 1010.62 1010.94 1011.14 1011.51 1011.91 1012.01 1012.41 1013.10 1013.69 1014.27 1014.79 1015.38 1015.75 1016.21 1016.58 1017.14 1017.51 1017.87 1018.40 1018.97 1019.34 1019.61 1019.99 1020.12 1020.37 1020.54 1020.94 1021.23 1021.53 1022.02 1022.02 1022.68 1022.43
1011.76 1012.41 1011.62 1010.90 1011.04 1010.61 1010.07 1010.17 1009.67 1010.22 1009.72 1009.24 1009.04 1010.09 1010.61 1010.27 1010.74 1011.10 1011.51 1011.77 1012.21 1012.39 1012.75 1013.24 1013.87 1014.54 1015.09 1015.69 1016.06 1016.47 1016.91 1017.45 1017.86 1018.34 1018.92 1019.46 1019.89 1020.12 1020.43 1020.69 1020.94 1021.33 1021.62 1021.90 1022.21 1022.66 1022.94 1023.16 1023.22
1011.22 1011.41 1008.95 1008.77 1009.83 1009.96 1009.56 1009.81 1009.49 1009.10 1009.43 1009.27 1009.18 1009.34 1009.32 1009.60 1010.56 1011.25 1011.75 1012.12 1012.45 1012.61 1012.90 1013.39 1013.99 1014.66 1015.25 1015.87 1016.49 1016.89 1017.41 1017.91 1018.37 1018.92 1019.46 1019.95 1020.42 1020.77 1021.05 1021.40 1021.71 1022.16 1022.43 1022.72 1023.02 1023.45 1023.67 1023.76 1023.87
1009.61 1008.73 1007.36 1008.28 1008.97 1008.92 1009.09 1009.21 1009.11 1009.33 1009.22 1009.20 1009.17 1009.38 1009.63 1009.96 1010.21 1010.66 1011.21 1011.54 1012.02 1012.36 1012.85 1013.53 1014.10 1014.68 1015.23 1016.04 1016.70 1017.34 1017.92 1018.47 1018.83 1019.32 1019.91 1020.46 1020.90 1021.30 1021.77 1022.14 1022.53 1022.94 1023.21 1023.55 1023.86 1024.25 1024.55 1024.47 1024.77
1007.91 1005.26 1008.07 1007.93 1008.34 1008.74 1008.77 1008.90 1008.87 1008.86 1008.94 1008.46 1008.68 1009.32 1009.84 1009.90 1010.30 1010.37 1010.84 1011.04 1011.49 1012.27 1012.89 1013.47 1014.30 1014.81 1015.36 1016.06 1016.87 1017.65 1018.27 1018.94 1019.52 1019.97 1020.32 1020.93 1021.53 1022.09 1022.74 1023.20 1023.67 1024.01 1024.34 1024.55 1024.79 1025.06 1025.42 1025.63 1025.73
1007.32 1006.76 1007.68 1008.28 1008.03 1008.31 1008.35 1008.55 1008.40 1008.16 1007.84 1007.44 1007.58 1008.18 1009.32 1009.62 1009.74 1010.07 1010.68 1011.20 1011.79 1012.43 1012.88 1013.58 1014.19 1014.93 1015.75 1016.27 1016.99 1017.79 1018.55 1019.31 1020.01 1020.43 1020.76 1021.27 1022.01 1022.71 1023.53 1024.10 1024.29 1024.47 1024.92 1025.16 1025.46 1025.85 1026.34 1026.49 1026.84
1006.63 1006.87 1007.14 1007.80 1008.14 1008.08 1008.24 1008.12 1008.18 1007.89 1007.59 1007.58 1007.85 1008.67 1008.86 1009.02 1009.22 1009.87 1010.20 1011.01 1011.86 1012.53 1013.05 1013.60 1014.32 1015.13 1015.75 1016.50 1017.24 1017.95 1018.83 1019.53 1020.22 1020.71 1021.21 1021.58 1022.35 1023.24 1024.03 1024.58 1024.81 1025.12 1025.38 1025.71 1026.12 1026.50 1026.87 1027.30 1027.70
1006.12 1007.17 1007.01 1007.42 1007.66 1008.11 1008.11 1008.24 1008.24 1007.65 1007.56 1007.92 1008.19 1008.63 1008.69 1008.65 1008.98 1009.86 1010.40 1010.84 1011.52 1012.60 1013.08 1013.69 1014.50 1015.10 1015.93 1016.83 1017.43 1018.13 1018.88 1019.77 1020.38 1020.98 1021.55 1022.04 1022.68 1023.45 1024.24 1024.90 1025.30 1025.73 1025.99 1026.42 1026.76 1027.21 1027.55 1028.13 1028.37
1006.87 1007.39 1007.35 1006.90 1007.23 1007.12 1008.49 1007.74 1005.66 1007.51 1007.77 1008.01 1008.33 1008.48 1008.87 1008.64 1008.99 1008.88 1009.12 1010.19 1010.76 1011.91 1013.04 1013.62 1014.49 1015.22 1016.27 1017.06 1017.80 1018.42 1019.15 1019.77 1020.58 1021.37 1021.98 1022.51 1022.91 1023.49 1024.11 1024.90 1025.61 1026.08 1026.46 1026.86 1027.38 1027.93 1028.28 1028.61 1028.97
1007.05 1007.00 1006.81 1006.00 1006.70 1007.08 1007.96 1003.84 1006.22 1007.11 1007.73 1008.23 1008.43 1008.60 1008.87 1009.02 1008.70 1008.79 1009.54 1010.10 1010.99 1011.95 1012.89 1013.60 1014.57 1015.56 1016.59 1017.42 1018.29 1019.03 1019.43 1019.96 1020.84 1021.60 1022.19 1022.74 1023.15 1023.64 1024.31 1024.99 1025.74 1026.25 1026.65 1027.10 1027.59 1028.02 1028.56 1029.22 1029.69
1005.48 1005.13 1004.96 1006.09 1005.72 1006.95 1006.82 1003.34 1005.91 1006.33 1007.25 1008.00 1008.52 1008.64 1008.75 1009.00 1009.29 1009.44 1009.47 1010.06 1011.11 1011.98 1012.90 1013.73 1014.79 1015.45 1016.67 1017.76 1018.76 1019.65 1020.02 1020.59 1021.27 1021.91 1022.52 1023.10 1023.45 1023.88 1024.42 1025.27 1025.97 1026.32 1026.89 1027.44 1027.87 1028.75 1028.71 1029.68 1030.41
1004.92 1005.03 1005.19 1004.61 1005.04 1005.96 1005.42 1004.77 1005.88 1006.13 1006.80 1007.49 1008.22 1008.65 1008.67 1008.81 1009.12 1009.37 1009.84 1010.11 1011.06 1012.02 1013.14 1014.02 1014.95 1015.80 1016.74 1017.98 1019.14 1020.21 1020.87 1021.38 1021.66 1022.30 1022.75 1023.27 1023.80 1024.20 1024.60 1025.55 1026.09 1026.43 1027.03 1027.84 1028.39 1028.92 1029.68 1030.00 1030.68
1006.14 1005.30 1004.86 1004.64 1004.95 1005.77 1004.75 1005.19 1005.48 1005.92 1006.46 1007.16 1007.75 1008.57 1008.77 1008.80 1008.99 1009.48 1010.02 1010.57 1011.11 1012.30 1013.31 1014.23 1015.13 1016.16 1016.53 1017.98 1019.27 1020.57 1021.26 1021.85 1022.29 1022.68 1023.10 1023.47 1023.97 1024.37 1024.83 1025.70 1026.37 1026.74 1027.20 1028.01 1028.73 1029.40 1029.92 1030.81 1031.00
1006.91 1006.05 1005.11 1005.03 1004.52 1004.76 1004.73 1004.75 1005.56 1005.36 1005.56 1006.32 1007.13 1007.95 1008.49 1008.97 1009.24 1009.57 1010.17 1010.98 1011.40 1012.29 1013.41 1014.39 1015.42 1016.31 1017.07 1017.56 1018.73 1019.76 1021.03 1021.98 1022.62 1023.00 1023.50 1023.85 1024.27 1024.62 1024.95 1025.60 1026.47 1026.94 1027.45 1028.27 1028.80 1029.12 1030.22 1030.88 1031.25
1006.82 1006.37 1006.10 1005.66 1005.11 1004.70 1004.69 1004.97 1005.12 1005.23 1005.52 1005.88 1006.28 1006.89 1007.78 1008.25 1008.94 1009.53 1010.12 1010.97 1011.89 1012.59 1013.43 1014.36 1015.54 1016.41 1017.31 1017.96 1018.86 1020.20 1021.48 1021.90 1023.07 1023.45 1023.86 1024.41 1024.66 1025.04 1025.18 1025.77 1026.37 1027.01 1027.43 1028.32 1029.00 1029.29 1029.59 1030.65 1031.56
1007.20 1006.63 1006.66 1006.01 1005.40 1004.55 1004.59 1003.76 1004.95 1005.01 1005.66 1006.12 1006.43 1006.90 1007.35 1008.11 1008.92 1009.25 1010.18 1011.30 1012.08 1012.92 1013.70 1014.50 1015.57 1016.63 1017.67 1018.24 1018.81 1019.17 1020.62 1021.58 1022.44 1023.16 1023.83 1024.61 1025.08 1025.41 1025.81 1026.27 1026.57 1026.95 1027.53 1028.37 1029.12 1029.52 1029.86 1030.21 1031.25
1007.54 1006.53 1006.20 1006.48 1006.12 1004.80 1004.51 1004.58 1003.32 1005.12 1005.96 1006.70 1006.42 1006.50 1007.13 1007.70 1008.48 1009.53 1010.53 1011.49 1012.18 1013.09 1014.05 1014.92 1015.80 1016.96 1017.91 1018.31 1019.10 1019.50 1020.95 1021.76 1022.74 1023.49 1023.95 1024.62 1025.17 1025.69 1026.26 1026.59 1026.91 1027.39 1027.52 1028.14 1028.98 1029.62 1030.05 1030.36 1031.20
1007.45 1007.00 1006.96 1006.64 1006.43 1005.69 1004.15 1005.29 1005.40 1005.85 1005.71 1007.15 1007.13 1007.42 1007.31 1007.90 1008.74 1010.11 1011.18 1012.11 1012.89 1013.69 1014.46 1015.16 1016.03 1017.11 1018.14 1018.39 1019.98 1019.69 1021.12 1021.41 1023.04 1023.44 1023.83 1025.17 1025.52 1025.85 1026.55 1026.82 1027.07 1027.49 1027.86 1028.05 1029.04 1029.58 1030.09 1030.54 1031.01
1007.92 1007.42 1006.88 1006.82 1006.53 1004.96 1004.86 1006.49 1007.94 1008.26 1008.36 1007.61 1007.44 1007.92 1008.00 1008.42 1009.66 1010.72 1011.81 1012.69 1013.51 1014.24 1014.88 1015.63 1016.42 1017.47 1018.43 1019.00 1019.67 1020.27 1021.76 1022.26 1022.03 1023.13 1023.77 1024.89 1026.30 1026.03 1026.49 1027.18 1027.52 1027.27 1028.07 1028.22 1029.03 1029.65 1030.20 1030.75 1031.36
1009.47 1008.01 1007.56 1006.96 1006.38 1006.30 1006.55 1007.67 1009.35 1009.89 1009.80 1008.96 1008.77 1009.00 1009.18 1009.59 1010.47 1011.59 1012.47 1013.20 1014.02 1014.68 1015.28 1015.93 1016.67 1017.49 1018.51 1019.01 1019.94 1020.91 1020.29 1022.81 1023.13 1022.76 1023.34 1025.22 1025.98 1026.24 1026.20 1027.59 1027.46 1027.86 1028.22 1028.65 1029.22 1029.91 1030.40 1031.06 1031.73
1009.92 1008.91 1008.82 1007.89 1007.10 1007.41 1009.22 1010.52 1010.55 1011.09 1010.83 1010.62 1010.33 1010.04 1010.72 1011.09 1011.72 1012.74 1013.47 1014.17 1014.71 1015.14 1015.91 1016.46 1017.22 1018.06 1018.98 1019.44 1020.52 1021.45 1022.05 1023.10 1023.12 1023.14 1024.20 1026.26 1026.00 1026.42 1027.61 1027.41 1027.65 1028.10 1028.49 1028.59 1029.32 1029.87 1030.38 1031.15 1032.00
1011.23 1010.84 1009.70 1008.71 1008.37 1009.02 1010.98 1011.97 1012.98 1012.57 1012.09 1012.14 1011.82 1011.80 1012.07 1012.48 1013.06 1013.77 1014.51 1015.06 1015.53 1015.81 1016.60 1017.27 1017.93 1018.55 1019.26 1020.03 1020.86 1021.46 1022.29 1023.40 1023.95 1024.01 1025.61 1026.17 1026.61 1027.22 1028.09 1027.40 1028.50 1027.77 1028.78 1029.01 1029.23 1030.11 1030.92 1031.27 1032.50
1012.73 1012.08 1011.34 1010.51 1009.39 1009.64 1011.68 1013.46 1013.87 1014.04 1013.69 1013.22 1012.92 1012.81 1013.16 1013.56 1014.18 1014.57 1015.42 1015.90 1016.59 1016.78 1017.27 1018.13 1018.92 1019.53 1020.18 1020.73 1021.43 1022.14 1022.86 1023.75 1024.43 1025.06 1025.95 1026.47 1026.73 1027.69 1028.45 1027.88 1028.79 1028.38 1029.02 1029.73 1029.48 1030.28 1031.21 1031.69 1032.56
1015.12 1014.28 1013.10 1012.04 1011.31 1011.58 1011.51 1014.61 1015.05 1014.79 1014.73 1014.33 1014.53 1014.36 1014.45 1014.52 1015.32 1015.68 1016.20 1016.88 1017.59 1017.65 1018.07 1018.97 1019.57 1020.15 1020.81 1021.28 1021.90 1022.69 1023.38 1023.99 1024.45 1025.54 1025.85 1026.81 1027.03 1028.48 1028.64 1028.57 1029.33 1029.44 1029.97 1029.68 1030.00 1030.84 1031.45 1032.03 1032.85
Thickness
5657 5656 5654 5646 5623 5606 5634 5648 5661 5661 5668 5682 5687 5685 5685 5693 5687 5676 5715 5718 5717 5715 5714 5711 5708 5708 5706 5704 5703 5702 5704 5705 5706 5707 5708 5709 5710 5710 5711 5710 5711 5712 5714 5713 5714 5714 5714 5712 5712
5647 5645 5639 5621 5603 5599 5644 5654 5660 5669 5679 5687 5692 5689 5689 5689 5702 5703 5706 5714 5716 5714 5711 5709 5706 5704 5702 5702 5700 5700 5700 5701 5702 5704 5703 5704 5705 5705 5705 5707 5707 5708 5709 5708 5707 5708 5708 5708 5707
5640 5638 5626 5610 5589 5615 5646 5657 5675 5673 5674 5680 5686 5692 5689 5694 5701 5704 5714 5714 5713 5711 5709 5705 5704 5702 5699 5698 5695 5696 5697 5697 5697 5699 5699 5698 5699 5700 5699 5701 5702 5702 5702 5702 5702 5703 5702 5704 5702
5629 5621 5611 5599 5611 5623 5655 5666 5666 5663 5668 5672 5683 5680 5692 5704 5701 5708 5709 5709 5708 5708 5705 5703 5701 5699 5697 5695 5693 5694 5693 5693 5693 5693 5693 5692 5693 5693 5693 5693 5695 5695 5694 5695 5697 5695 5694 5695 5696
5619 5607 5599 5596 5617 5633 5651 5667 5660 5661 5667 5675 5679 5681 5687 5700 5704 5704 5704 5705 5703 5703 5701 5699 5699 5696 5692 5691 5691 5690 5690 5690 5690 5689 5688 5686 5686 5685 5686 5687 5688 5690 5689 5689 5690 5684 5683 5683 5685
5604 5599 5591 5619 5616 5629 5647 5658 5661 5661 5668 5677 5673 5671 5679 5693 5696 5696 5699 5698 5698 5697 5695 5694 5694 5693 5689 5687 5687 5687 5687 5686 5686 5685 5683 5681 5679 5679 5680 5681 5682 5683 5683 5684 5678 5682 5679 5672 5674
5600 5597 5615 5614 5627 5622 5650 5654 5649 5660 5661 5672 5680 5665 5678 5685 5691 5692 5693 5692 5691 5691 5691 5690 5689 5687 5686 5684 5684 5684 5684 5681 5682 5681 5678 5675 5673 5674 5675 5677 5675 5676 5676 5676 5672 5670 5667 5664 5669
5599 5592 5604 5614 5619 5629 5650 5647 5659 5650 5653 5673 5677 5659 5668 5685 5686 5687 5685 5686 5685 5685 5686 5686 5685 5682 5682 5680 5680 5680 5680 5678 5677 5676 5674 5671 5669 5670 5669 5670 5670 5667 5668 5668 5668 5663 5659 5661 5665
5595 5589 5617 5629 5621 5629 5648 5640 5650 5658 5654 5664 5669 5673 5683 5684 5681 5677 5675 5676 5677 5681 5681 5681 5681 5679 5679 5677 5676 5675 5674 5673 5673 5672 5670 5667 5665 5665 5664 5664 5664 5661 5661 5661 5661 5657 5655 5656 5660
5591 5601 5624 5627 5624 5635 5643 5637 5640 5642 5644 5652 5662 5666 5669 5675 5677 5675 5674 5676 5677 5680 5682 5680 5677 5677 5676 5674 5672 5670 5669 5668 5668 5667 5664 5662 5661 5659 5658 5658 5657 5655 5655 5655 5654 5652 5651 5654 5653
5595 5620 5608 5617 5621 5626 5631 5626 5631 5631 5629 5647 5656 5660 5660 5666 5669 5673 5674 5678 5679 5678 5677 5677 5674 5673 5673 5672 5668 5666 5664 5662 5661 5661 5660 5657 5655 5653 5651 5651 5650 5650 5650 5651 5649 5648 5647 5646 5646
5581 5602 5598 5599 5610 5616 5621 5626 5624 5625 5640 5657 5661 5660 5657 5662 5668 5670 5669 5671 5671 5670 5672 5672 5671 5668 5666 5665 5664 5662 5659 5657 5655 5655 5654 5653 5649 5646 5643 5643 5644 5645 5643 5644 5644 5641 5638 5638 5636
5576 5586 5589 5590 5591 5604 5610 5612 5615 5622 5635 5646 5647 5646 5652 5659 5666 5666 5669 5667 5664 5662 5665 5667 5666 5664 5661 5660 5659 5657 5653 5651 5650 5649 5649 5648 5644 5640 5637 5637 5638 5639 5638 5638 5637 5635 5633 5630 5628
5571 5564 5572 5575 5582 5589 5596 5599 5605 5616 5623 5627 5631 5635 5646 5656 5660 5655 5657 5659 5658 5656 5660 5661 5659 5659 5657 5654 5652 5651 5649 5646 5645 5644 5644 5643 5640 5637 5634 5632 5631 5631 5631 5630 5630 5627 5626 5623 5621
5544 5535 5545 5557 5569 5582 5580 5584 5613 5607 5610 5613 5618 5627 5634 5647 5650 5657 5665 5661 5662 5659 5656 5656 5655 5653 5650 5648 5646 5644 5643 5643 5640 5639 5638 5636 5636 5634 5633 5630 5626 5625 5624 5624 5621 5619 5618 5617 5615
5511 5519 5516 5556 5560 5564 5565 5613 5604 5598 5598 5601 5607 5614 5624 5631 5644 5652 5651 5654 5653 5651 5651 5652 5649 5645 5642 5640 5638 5637 5638 5638 5635 5633 5632 5631 5631 5631 5629 5626 5623 5621 5620 5618 5616 5614 5612 5609 5608
5502 5516 5525 5538 5550 5548 5559 5612 5587 5593 5594 5593 5594 5603 5615 5624 5625 5631 5645 5649 5645 5643 5644 5644 5641 5641 5637 5632 5630 5627 5630 5629 5629 5627 5625 5624 5625 5625 5624 5621 5618 5617 5614 5612 5611 5607 5608 5602 5598
5498 5499 5513 5533 5540 5537 5561 5578 5579 5583 5588 5586 5585 5589 5604 5616 5620 5627 5635 5642 5638 5635 5634 5634 5632 5632 5630 5625 5621 5617 5617 5618 5620 5620 5619 5618 5617 5618 5618 5614 5613 5612 5609 5604 5602 5601 5597 5596 5593
5470 5489 5495 5514 5531 5525 5549 5559 5572 5574 5580 5578 5575 5576 5590 5603 5616 5620 5623 5627 5629 5627 5626 5626 5625 5623 5627 5619 5613 5609 5609 5610 5611 5612 5612 5612 5611 5611 5610 5607 5605 5605 5603 5600 5595 5593 5591 5586 5586
5446 5469 5486 5494 5518 5525 5537 5542 5552 5564 5579 5580 5577 5575 5580 5590 5600 5608 5609 5613 5619 5620 5617 5616 5615 5614 5614 5617 5614 5609 5605 5602 5602 5603 5603 5603 5605 5605 5605 5601 5598 5599 5597 5593 5591 5590 5583 5581 5581
5434 5448 5460 5483 5499 5515 5522 5525 5535 5553 5561 5568 5575 5579 5580 5587 5596 5601 5603 5605 5605 5609 5610 5609 5607 5606 5604 5605 5605 5600 5594 5595 5590 5592 5594 5593 5595 5596 5597 5595 5594 5592 5591 5588 5585 5585 5585 5577 5574
5418 5445 5453 5468 5488 5504 5508 5525 5527 5545 5551 5556 5555 5567 5572 5578 5584 5595 5595 5594 5597 5598 5599 5599 5596 5595 5594 5596 5599 5603 5596 5595 5590 5589 5586 5584 5583 5585 5586 5585 5586 5586 5586 5580 5578 5578 5577 5576 5570
5388 5439 5450 5456 5458 5492 5503 5513 5538 5538 5539 5546 5545 5562 5561 5573 5579 5582 5582 5584 5586 5585 5585 5586 5586 5583 5582 5586 5587 5589 5582 5581 5579 5577 5577 5575 5576 5575 5575 5576 5576 5577 5578 5576 5572 5570 5569 5568 5563
5407 5426 5435 5437 5449 5466 5505 5507 5502 5529 5549 5544 5527 5535 5554 5565 5569 5567 5564 5564 5565 5567 5569 5571 5573 5573 5572 5576 5562 5578 5569 5575 5567 5570 5572 5564 5565 5566 5565 5566 5569 5569 5568 5570 5564 5562 5560 5559 5557
5405 5403 5436 5445 5451 5474 5492 5502 5469 5457 5466 5509 5524 5525 5537 5552 5546 5545 5546 5547 5550 5553 5556 5557 5560 5560 5561 5560 5562 5564 5562 5560 5566 5560 5562 5560 5547 5558 5558 5555 5556 5561 5558 5560 5558 5555 5552 5549 5545
5369 5414 5430 5442 5458 5440 5495 5492 5441 5436 5461 5480 5496 5512 5520 5527 5530 5531 5534 5537 5537 5539 5543 5547 5549 5551 5551 5554 5552 5552 5562 5543 5549 5557 5557 5549 5546 5545 5551 5542 5547 5547 5549 5549 5548 5545 5543 5538 5535
5375 5410 5400 5423 5411 5465 5425 5405 5429 5438 5455 5466 5476 5491 5493 5500 5508 5509 5513 5518 5522 5528 5529 5533 5534 5535 5535 5539 5538 5535 5538 5534 5541 5548 5543 5531 5536 5536 5531 5535 5535 5535 5536 5540 5536 5534 5534 5530 5524
5360 5375 5411 5421 5448 5433 5410 5400 5395 5412 5442 5451 5461 5469 5475 5481 5486 5490 5495 5499 5504 5510 5512 5514 5518 5520 5521 5523 5523 5526 5527 5521 5524 5529 5522 5522 5522 5522 5517 5527 5520 5529 5524 5526 5527 5524 5520 5519 5512
5346 5352 5365 5380 5408 5440 5417 5375 5377 5390 5418 5434 5445 5457 5464 5469 5472 5476 5477 5481 5485 5492 5496 5497 5498 5500 5502 5505 5507 5510 5511 5507 5510 5510 5507 5509 5511 5508 5508 5511 5506 5512 5511 5509 5513 5511 5506 5504 5500
5331 5334 5349 5378 5406 5386 5413 5378 5381 5394 5406 5420 5426 5435 5444 5454 5456 5462 5465 5467 5471 5478 5481 5480 5481 5483 5485 5489 5492 5493 5495 5497 5500 5497 5497 5498 5498 5492 5493 5497 5493 5494 5492 5497 5498 5494 5491 5490 5485